GEFSMA_500_meanwind_192.txt.gz
Wind_Speed
7 7 7 7 6 5 5 4 4 4 4 3 4 4 3 4 3 4 4 4 3 3 4 3 3 3 4 4 4 5 5 4 5 4 3 3 3 3 3 3 4 4 4
8 8 7 7 6 6 6 5 5 5 5 4 4 4 4 4 3 4 4 3 3 3 3 3 3 4 5 5 5 5 5 5 4 3 3 4 3 4 4 4 4 4 5
8 8 8 8 7 7 8 7 6 5 5 5 5 4 4 4 4 4 4 3 3 3 4 4 4 5 5 5 5 5 6 5 5 5 4 4 4 4 4 4 4 5 5
9 9 9 8 8 8 8 8 7 6 6 5 5 4 5 5 5 5 5 4 4 4 4 5 5 5 5 6 6 6 6 5 5 6 5 5 5 5 4 5 5 5 6
11 10 10 10 9 9 9 8 7 7 7 6 6 5 5 5 5 5 5 4 4 5 5 5 5 6 6 6 7 7 6 5 6 6 5 6 6 6 5 5 6 7 7
12 11 11 11 10 9 9 9 9 8 8 8 7 6 6 6 5 5 5 4 4 5 5 5 5 5 6 6 7 6 6 6 6 6 6 6 6 7 7 7 7 7 7
13 12 11 11 11 10 10 10 9 9 9 8 8 7 7 7 7 6 6 6 6 6 6 6 6 6 7 7 6 6 6 6 7 7 7 6 7 7 7 7 7 7 7
13 13 12 12 12 11 11 10 10 10 9 8 8 7 7 7 7 6 6 6 6 6 6 7 6 7 7 6 6 6 6 7 7 7 7 7 7 7 7 7 7 7 7
13 13 13 13 12 12 11 11 10 10 10 9 8 8 7 7 6 6 6 6 6 6 6 6 6 6 6 6 6 6 6 7 7 7 7 8 8 8 8 7 7 7 7
13 13 13 13 13 11 11 10 10 10 10 10 10 9 8 8 8 7 7 6 7 7 6 6 6 6 6 6 6 6 6 7 7 7 8 8 8 8 8 8 8 8 8
12 12 13 13 12 11 11 10 10 10 10 10 10 10 9 9 8 8 8 7 7 7 6 6 6 7 7 7 7 7 7 7 7 7 7 8 8 9 8 8 8 8 8
12 11 11 11 12 11 11 11 10 10 10 10 10 10 9 9 9 8 8 8 7 7 6 6 7 8 8 8 7 7 8 8 8 8 8 8 8 8 8 8 8 8 8
12 11 10 11 12 11 11 11 11 11 11 10 10 10 10 9 9 9 9 8 8 8 8 8 8 8 8 8 8 8 8 8 9 9 9 9 9 9 9 9 9 9 9
12 12 11 12 12 12 11 11 11 11 11 11 11 10 10 10 10 10 10 9 9 9 9 9 9 9 9 9 9 9 9 9 9 10 10 10 10 10 11 11 11 11 11
12 12 11 11 12 12 12 12 11 11 11 11 11 11 11 11 11 11 11 10 10 10 10 10 10 10 10 10 10 10 10 10 10 10 10 11 11 11 12 12 12 13 13
12 12 12 12 12 12 12 11 11 11 11 11 11 12 11 12 12 12 12 11 11 12 12 12 11 11 12 11 11 10 11 11 11 11 11 11 12 12 13 13 14 14 15
12 12 12 12 12 13 13 12 12 12 12 11 11 12 12 12 12 13 12 12 12 13 13 12 13 13 12 12 12 12 12 12 12 13 13 13 13 14 14 15 15 16 16
12 12 12 13 13 14 14 14 13 14 13 13 12 13 13 13 13 13 14 14 13 13 14 14 14 14 13 13 13 13 13 13 13 13 14 14 15 15 16 17 17 17 18
13 13 14 14 14 14 14 14 14 14 14 14 13 13 14 14 14 14 15 15 15 15 15 15 15 15 15 15 15 14 14 15 15 16 16 17 17 17 18 19 19 19 20
13 14 15 14 15 15 15 14 15 14 14 14 14 14 15 15 15 15 16 17 16 17 17 16 16 16 17 17 17 17 16 17 17 18 18 19 19 20 21 21 21 22 23
14 14 14 14 14 15 15 15 15 15 15 16 15 15 16 16 17 16 17 17 17 18 18 18 18 18 18 19 19 19 19 19 20 21 21 22 22 23 23 23 23 24 25
15 15 15 15 15 15 15 16 16 16 16 16 16 16 17 17 18 18 18 18 18 19 19 19 20 20 20 20 21 21 21 22 23 24 24 24 25 25 25 26 26 26 27
15 16 15 15 16 15 15 16 16 17 17 17 17 17 17 18 19 19 19 19 19 20 20 21 21 21 22 22 22 23 24 25 25 26 27 27 27 27 28 28 29 29 30
16 16 16 17 17 16 17 18 18 18 18 19 19 19 19 19 19 20 20 20 21 21 21 22 23 24 24 24 25 26 26 27 28 29 29 29 29 30 30 31 32 33 33
18 18 18 19 19 19 19 19 20 20 20 20 19 19 19 20 20 21 21 21 22 23 23 24 25 25 26 27 27 28 29 29 29 30 31 31 31 31 32 33 34 34 35
18 19 20 21 21 20 21 21 21 21 21 20 21 21 21 21 22 22 22 22 23 24 25 26 27 28 28 29 29 30 31 32 32 32 32 33 33 34 34 35 36 37 37

GEFSMA_500_meanwind_198.txt.gz
Wind_Speed
4 4 4 5 4 4 3 3 3 3 3 3 3 3 2 3 2 3 3 3 2 2 2 2 2 2 2 2 3 3 3 3 3 2 2 2 2 3 3 4 4 4 4
5 5 5 5 5 5 4 4 4 4 4 4 4 3 3 3 4 4 3 3 3 3 3 3 3 2 2 3 3 3 3 3 3 3 3 3 3 3 3 4 4 5 5
5 5 6 6 5 5 5 5 5 5 4 4 4 4 3 3 3 3 3 3 3 3 3 3 3 3 4 3 3 4 4 3 3 3 3 3 3 3 3 4 4 5 5
6 5 6 6 6 7 7 7 6 6 5 5 5 4 4 3 3 3 3 3 3 3 4 4 4 4 5 4 4 4 4 4 4 4 3 4 4 3 3 4 5 5 6
7 7 6 6 6 7 7 7 7 7 6 5 5 5 4 4 4 4 4 4 3 3 3 3 4 4 5 5 5 5 5 5 5 5 4 4 4 4 4 4 5 5 6
8 7 7 7 7 7 7 7 8 7 7 6 7 6 6 6 5 5 5 5 5 5 4 5 5 5 5 5 5 6 5 5 5 5 5 5 5 5 5 5 5 5 6
9 9 9 8 8 8 8 8 8 8 7 7 7 7 7 6 5 5 5 5 5 5 5 6 6 5 5 5 6 6 6 6 6 6 5 5 6 6 6 7 7 7 7
10 10 10 10 10 10 9 9 9 8 8 8 7 6 6 6 6 6 6 6 6 6 6 6 6 6 6 5 5 6 6 6 6 6 6 6 6 7 7 7 7 7 7
11 10 10 11 11 11 11 10 9 8 8 7 7 7 7 7 7 6 6 6 6 6 7 6 6 5 5 5 5 5 5 6 6 6 7 7 7 8 8 8 8 8 8
9 10 10 11 11 11 11 11 10 9 8 8 8 7 7 7 7 6 6 6 6 7 7 6 6 6 6 5 5 5 5 6 6 7 7 7 8 8 9 9 9 8 8
9 9 10 10 11 12 11 11 11 10 9 9 9 9 9 8 7 7 7 7 7 7 7 7 7 7 7 6 6 6 6 6 6 7 8 8 8 9 9 9 8 8 9
9 9 9 9 10 10 10 10 10 10 9 9 9 9 9 9 8 8 7 7 7 7 7 7 8 8 8 7 7 7 7 7 7 8 8 8 9 9 9 10 10 10 10
9 10 10 9 9 10 10 10 10 10 10 10 10 10 10 10 9 9 9 9 9 8 8 8 8 9 9 9 9 9 8 8 8 8 9 9 9 10 10 10 11 11 10
10 10 10 10 10 10 10 10 10 10 10 10 10 10 9 10 10 10 10 10 10 10 10 9 9 9 9 9 10 9 9 9 9 9 9 10 10 11 11 11 11 11 11
10 11 10 10 11 10 10 10 11 10 11 11 10 10 10 11 11 11 11 11 11 11 11 11 10 10 11 11 10 10 10 11 10 10 10 11 11 11 12 12 13 13 13
11 12 11 12 12 11 11 11 11 11 11 12 12 11 11 11 12 11 12 12 12 12 12 11 11 11 11 11 11 11 11 11 11 11 11 12 12 12 13 13 13 14 14
12 12 12 12 12 12 12 11 12 12 11 12 12 12 12 12 12 12 12 12 13 13 13 12 12 12 12 12 12 12 13 13 13 13 13 13 13 14 14 15 16 16 16
12 12 13 13 13 13 13 12 13 13 13 13 13 13 12 12 12 12 12 13 13 14 14 14 14 14 14 14 14 14 14 15 15 15 15 15 15 16 16 17 18 19 19
12 13 13 14 14 15 14 14 14 14 15 15 14 13 13 13 13 13 14 14 15 15 15 16 16 16 16 16 16 16 16 16 17 16 17 17 18 18 19 19 20 22 22
13 14 14 14 15 15 15 15 15 15 15 15 15 15 14 14 14 15 16 16 17 17 17 17 18 17 17 17 17 17 18 18 18 18 19 19 19 20 21 22 23 24 24
15 15 16 15 15 15 15 16 16 16 16 16 16 16 15 15 16 16 16 17 17 17 18 18 19 19 19 19 20 20 19 20 20 21 21 22 22 23 24 24 25 26 26
15 16 16 17 17 17 17 16 16 15 16 16 16 17 17 17 17 17 17 18 18 18 19 20 20 21 21 21 21 21 22 22 23 23 24 24 25 26 27 27 27 28 28
15 15 16 17 17 17 16 16 16 16 17 17 18 18 18 18 18 18 19 19 19 20 21 21 22 22 22 22 22 23 23 24 25 26 26 27 28 28 29 30 31 31 32
15 16 17 17 16 17 17 18 19 18 18 18 18 19 19 19 19 20 20 20 20 21 22 23 23 22 23 24 25 25 26 26 27 28 29 29 30 30 31 32 33 34 34
16 16 17 17 17 18 18 19 20 20 20 20 20 20 21 21 21 22 22 22 23 23 23 23 23 23 25 26 27 28 28 29 29 31 32 32 32 33 33 34 34 35 36
17 17 17 17 18 18 19 20 20 21 21 21 22 22 22 22 23 23 23 23 24 23 24 24 25 26 27 28 29 31 32 32 32 33 34 35 35 36 36 36 36 37 37

GEFSMA_500_meanwind_204.txt.gz
Wind_Speed
2 2 3 3 3 3 2 2 2 2 2 2 2 3 3 3 3 3 4 3 3 3 3 3 3 3 3 4 4 4 4 4 4 3 3 3 3 3 3 4 4 3 3
3 3 3 3 3 3 3 3 3 3 3 3 3 3 3 3 4 5 5 4 4 4 4 3 4 4 4 4 4 4 4 4 4 4 4 4 3 3 3 4 4 4 4
5 5 4 4 4 4 4 4 4 4 3 3 4 4 4 4 5 5 5 4 4 4 4 4 4 4 4 5 5 5 5 5 5 4 4 4 4 4 4 4 5 5 4
6 6 5 5 4 4 5 5 5 5 4 4 4 4 4 5 5 5 5 5 4 4 4 4 5 5 5 6 6 6 6 6 6 5 5 5 4 4 4 4 4 5 5
7 7 6 6 5 6 6 6 6 6 6 6 5 5 5 5 5 5 5 5 4 5 5 5 5 6 6 7 7 7 7 7 7 7 6 6 5 5 5 5 5 6 6
8 8 8 8 8 7 7 7 7 7 7 8 7 7 6 7 7 7 6 6 6 6 6 6 7 7 7 7 8 8 8 8 8 7 7 7 6 6 6 6 7 7 6
9 9 9 9 9 9 9 8 8 8 8 8 8 8 8 8 7 7 7 7 7 7 7 7 8 8 8 8 8 8 8 8 8 8 8 7 7 8 8 8 8 8 8
10 10 10 10 10 10 10 9 9 9 9 9 9 8 8 8 8 8 8 8 8 8 8 8 8 8 9 8 8 9 9 9 8 8 9 8 9 9 9 9 9 9 9
10 10 11 11 10 10 10 10 9 9 10 9 9 9 9 9 9 9 9 9 9 9 9 9 9 9 10 9 9 9 9 9 8 8 9 9 10 10 10 10 11 10 10
11 11 11 11 11 10 10 11 11 10 10 10 10 9 9 9 9 9 9 10 10 10 10 9 9 10 10 10 10 10 9 9 9 9 10 10 10 10 11 11 12 11 11
11 11 11 11 10 10 10 11 11 11 10 10 10 10 10 10 10 10 10 10 10 10 10 9 9 9 9 10 10 10 10 10 10 10 11 11 11 11 12 12 12 12 12
11 11 11 11 11 11 10 10 10 10 10 10 10 11 11 11 11 11 10 11 11 11 11 11 11 10 10 10 10 10 10 11 11 11 11 12 12 13 13 13 13 13 12
12 12 12 11 11 11 10 11 11 11 11 11 11 11 12 12 12 12 11 11 12 12 12 13 12 12 12 12 12 11 11 12 12 13 13 13 13 13 14 14 13 14 14
13 13 12 12 11 11 10 11 11 12 12 12 12 12 12 12 13 13 12 12 12 12 12 13 13 13 13 13 13 13 13 13 13 13 14 14 14 15 14 15 15 16 16
14 13 13 13 12 12 11 10 12 12 12 13 13 14 13 13 13 13 13 13 13 13 13 14 14 14 14 14 14 14 14 14 14 14 15 15 15 15 16 16 17 17 17
13 14 14 13 13 12 12 12 12 13 13 14 14 14 14 14 14 15 15 15 15 14 15 15 15 15 15 15 15 15 15 15 15 16 16 16 16 16 17 17 18 18 18
14 14 14 14 14 13 13 13 13 13 14 14 14 14 14 15 15 15 16 16 16 16 16 16 17 17 17 17 17 17 17 17 17 18 18 18 17 18 18 18 18 19 19
14 13 13 13 13 13 14 14 14 14 15 15 15 15 15 16 16 16 17 17 18 18 18 18 18 18 18 19 19 19 19 19 19 20 19 19 19 19 20 20 20 20 21
13 13 14 14 14 15 15 16 16 16 16 16 16 16 17 17 17 18 18 18 19 19 19 19 19 20 20 20 20 21 21 21 22 21 21 22 21 21 21 21 22 22 23
14 14 14 15 15 16 16 17 17 17 17 17 17 18 18 18 19 19 19 19 20 20 20 20 20 20 21 21 22 22 23 23 23 23 24 23 23 23 24 24 24 25 25
15 16 16 16 16 16 17 18 18 18 18 18 19 19 19 19 19 20 20 20 21 21 21 21 22 22 22 22 23 24 24 24 25 25 25 26 26 26 26 26 27 27 28
16 17 17 17 17 18 18 19 20 20 20 20 20 21 20 20 20 20 21 21 22 22 23 23 23 23 24 24 25 25 26 26 26 27 27 28 28 28 29 29 29 30 31
16 16 17 18 19 19 20 20 21 22 21 21 21 21 21 21 22 22 23 23 23 23 24 24 24 25 25 26 26 27 26 26 27 28 28 29 30 31 31 32 33 33 34
15 16 16 18 19 20 21 22 23 24 22 21 22 23 23 22 22 23 24 24 25 26 26 26 26 27 27 27 27 28 29 28 28 29 30 30 32 33 34 35 35 36 36
15 15 17 17 18 19 21 23 24 23 23 23 23 23 24 24 25 26 26 26 27 28 27 27 28 27 28 29 30 30 30 30 31 32 33 34 35 36 36 37 38 38 39
16 17 17 17 17 18 20 21 22 22 22 23 24 25 25 26 27 28 28 28 28 28 28 29 29 29 30 30 31 31 32 33 34 35 37 38 38 39 40 40 41 41 42

GEFSMA_500_meanwind_210.txt.gz
Wind_Speed
2 2 3 3 3 3 3 3 3 3 2 1 1 2 2 2 2 2 2 1 2 2 2 3 2 3 3 3 2 3 3 3 3 3 2 2 2 2 2 2 2 3 3
3 3 4 4 4 3 3 3 3 3 3 2 3 3 3 3 3 2 2 2 2 3 3 3 3 4 4 4 3 4 4 3 4 4 3 3 3 3 3 3 2 3 3
3 4 4 4 4 4 4 4 4 4 4 3 3 4 4 4 4 3 3 3 3 3 3 3 4 4 5 4 4 4 4 4 4 4 4 4 4 4 3 3 4 4 4
5 5 5 5 5 5 4 4 4 4 4 4 4 4 4 4 4 4 4 3 3 3 3 4 4 5 5 5 5 5 5 5 5 5 5 5 5 5 5 4 4 4 5
6 6 6 5 5 5 5 5 5 5 5 5 5 5 5 5 5 5 5 4 4 4 4 5 5 6 6 6 6 6 7 6 6 6 6 6 6 6 6 5 5 5 5
8 8 7 7 6 6 6 6 6 6 6 6 6 6 6 6 6 6 5 5 5 5 5 6 6 6 6 6 7 7 7 7 7 7 7 7 7 7 6 6 6 6 6
9 9 9 8 8 8 8 8 7 7 7 7 7 7 6 6 6 6 6 6 6 6 6 6 6 7 7 7 7 7 7 7 7 7 7 7 8 8 8 8 8 7 8
9 9 9 9 9 10 10 9 9 9 8 8 7 7 7 7 7 7 6 6 7 7 7 7 7 7 7 7 8 8 8 8 8 8 8 8 8 9 9 9 9 9 9
9 9 9 10 10 10 10 10 10 9 9 8 8 8 9 9 8 8 8 8 8 8 8 9 8 8 8 8 9 9 8 8 8 8 9 9 9 10 10 9 9 10 10
10 10 11 10 10 10 10 10 10 10 10 9 9 9 9 9 10 9 9 8 9 9 9 9 9 9 10 10 10 10 9 9 9 9 10 10 10 10 10 10 10 10 10
10 10 10 10 10 10 10 10 10 11 10 9 9 9 9 9 9 10 10 10 10 10 10 10 10 11 11 10 10 10 10 10 10 10 10 10 10 10 10 10 10 11 12
11 11 10 10 10 10 10 10 10 10 11 10 10 9 10 10 10 10 10 11 11 11 11 11 11 12 11 11 11 11 11 11 11 11 10 11 11 11 12 12 13 13 13
11 11 10 10 10 10 11 12 12 11 11 11 11 11 11 11 11 10 10 11 11 11 12 12 12 12 11 11 12 12 12 12 12 13 13 13 12 12 13 13 14 14 15
13 12 11 11 11 11 12 12 12 11 10 11 11 12 11 11 11 11 11 11 12 12 12 13 13 13 13 13 13 13 13 13 14 14 14 14 14 15 15 15 15 15 15
13 13 13 12 12 13 13 13 12 11 11 11 11 11 11 12 13 13 13 13 13 14 14 14 14 14 15 14 14 14 15 15 15 15 15 15 16 16 16 16 16 16 16
14 14 13 13 13 14 14 13 12 12 12 12 12 12 12 13 13 14 14 15 15 15 15 16 16 16 16 16 16 16 16 17 17 17 17 17 17 18 18 18 18 18 18
14 13 13 14 13 13 13 12 12 13 13 13 13 13 13 14 14 14 15 15 16 16 17 17 18 18 18 18 18 18 18 18 18 18 18 19 20 20 20 20 19 20 20
14 14 13 14 13 13 13 13 14 13 14 14 14 14 14 14 15 16 16 17 17 18 18 19 19 19 19 19 20 20 20 20 20 20 20 21 22 21 21 20 21 21 21
14 14 14 14 14 13 13 14 14 14 15 14 15 15 16 16 16 17 17 18 19 19 19 19 19 20 20 20 21 21 21 21 22 22 22 23 23 23 22 23 23 23 23
14 15 15 15 14 14 15 15 16 16 16 17 17 17 17 17 18 18 18 19 20 20 20 20 20 21 21 21 22 22 23 24 24 24 24 25 25 25 25 25 25 26 26
16 16 16 16 16 16 16 17 17 17 17 17 18 19 19 19 19 19 20 21 21 21 21 22 22 22 23 23 23 24 25 25 26 26 27 27 27 27 27 27 28 29 29
16 16 16 16 16 16 17 17 18 18 19 19 19 19 20 20 21 21 22 22 22 22 23 23 23 24 25 24 25 25 26 27 27 28 28 29 29 29 29 30 30 31 32
16 16 16 16 15 16 17 19 20 20 20 20 20 20 21 21 22 23 23 23 24 24 25 25 25 26 26 26 27 28 28 28 28 29 30 30 31 30 31 32 33 34 34
17 17 17 16 16 17 18 19 21 21 21 21 22 22 22 23 23 23 24 25 25 25 26 27 27 28 28 29 29 30 30 31 31 31 32 33 34 34 35 36 36 37 37
17 17 16 17 17 18 19 20 21 21 21 22 23 23 24 25 25 26 26 27 27 27 28 29 29 30 30 31 31 31 32 32 33 34 35 35 36 37 37 38 39 40 41
18 17 17 17 18 19 19 20 20 21 22 22 23 24 25 27 28 28 28 29 29 29 30 31 31 31 32 32 33 33 34 34 34 35 36 37 37 37 38 39 40 41 42

GEFSMA_500_meanwind_216.txt.gz
Wind_Speed
4 4 4 4 4 4 4 5 5 4 3 3 2 3 2 2 2 2 2 2 2 2 2 2 2 3 3 3 3 4 3 3 3 3 2 1 1 2 1 1 2 2 2
5 5 5 5 5 5 5 5 5 5 4 3 3 3 3 3 3 3 3 3 3 3 3 2 3 3 3 3 3 3 3 3 3 3 2 2 2 1 1 1 2 2 3
6 6 6 6 6 6 5 5 5 5 5 5 4 3 4 4 3 3 3 3 3 3 3 3 3 3 3 3 3 3 3 3 4 3 3 2 3 2 2 2 3 3 3
7 7 7 7 7 7 6 6 6 5 5 5 5 4 4 4 4 3 3 3 3 3 3 3 3 4 4 4 4 4 4 4 4 4 3 3 3 3 4 4 4 4 4
8 8 8 8 8 7 6 6 6 6 6 6 6 6 5 5 4 4 3 3 3 3 4 4 4 4 4 5 5 4 4 4 4 4 4 3 3 4 4 5 5 5 5
9 9 9 9 9 8 7 7 7 7 7 7 6 6 5 5 5 4 3 3 3 4 4 5 5 5 5 5 5 4 5 5 5 5 4 4 4 5 5 5 6 6 6
10 9 9 9 8 8 8 8 8 8 8 8 7 7 6 6 6 5 4 4 4 4 4 5 5 5 6 5 5 5 5 5 5 5 5 5 5 6 6 6 7 7 7
9 8 8 9 9 9 8 8 8 8 8 7 7 7 6 6 6 5 5 5 5 5 5 6 5 5 6 5 6 6 6 6 6 6 6 6 6 7 7 8 8 8 8
9 9 9 9 9 9 9 8 8 8 8 7 7 7 6 6 5 6 6 6 6 6 6 6 6 6 7 7 7 7 7 7 7 6 6 6 7 8 8 9 9 8 9
9 9 10 10 10 9 9 9 8 8 8 8 7 8 7 7 6 6 7 7 7 7 7 7 7 7 8 8 8 8 8 8 8 7 7 7 8 8 8 8 8 9 10
10 10 11 10 10 10 10 9 9 9 9 9 9 9 8 8 8 7 7 7 8 8 8 8 8 8 8 9 9 9 9 9 9 8 8 8 9 9 9 9 9 10 11
10 10 10 10 10 10 10 9 10 10 10 10 10 10 9 9 9 8 8 9 9 8 8 8 9 9 9 9 10 9 10 10 10 10 9 10 10 10 10 10 11 11 12
11 10 10 10 10 10 10 10 11 11 11 11 11 11 10 10 9 9 9 10 10 9 9 9 10 10 10 11 11 11 11 11 11 11 11 11 12 12 12 12 13 13 13
11 10 11 11 11 11 11 11 12 12 12 12 12 12 11 11 11 11 11 11 11 10 10 11 11 11 12 12 11 11 11 11 11 12 12 13 13 14 14 14 14 15 15
11 11 12 11 11 11 11 12 12 12 11 12 12 12 12 12 12 12 12 12 12 12 12 12 12 13 13 13 13 13 12 12 13 14 14 14 14 15 15 16 16 17 16
12 12 12 12 12 11 12 13 12 12 11 11 11 11 12 12 13 13 13 13 13 13 13 14 14 15 15 15 14 14 14 14 15 15 16 16 16 16 17 18 18 19 18
12 12 12 12 12 12 12 12 12 12 12 12 12 12 12 13 13 13 13 14 15 15 15 16 16 16 17 17 16 16 16 16 17 17 18 18 18 19 19 20 20 21 21
12 12 12 12 13 13 12 12 12 13 13 12 12 12 13 13 14 14 15 15 16 16 17 17 18 18 18 18 18 18 18 18 18 19 19 20 20 21 21 22 22 22 22
13 13 13 13 14 14 14 14 14 14 13 13 13 13 14 15 15 16 16 17 18 18 18 19 19 19 19 19 19 20 20 20 20 21 21 21 22 23 23 23 24 25 25
13 14 15 14 14 14 15 15 15 15 14 14 14 14 15 16 16 17 18 18 19 19 20 21 21 21 21 21 21 22 22 22 23 23 23 23 23 24 25 25 26 27 27
14 15 15 15 15 15 15 15 16 16 15 15 16 16 17 18 19 19 20 20 21 21 21 22 23 23 23 24 24 24 24 25 25 26 26 26 26 27 27 28 28 29 29
15 15 16 16 15 15 15 15 16 16 16 16 17 17 18 19 20 21 21 22 23 23 23 23 24 24 24 25 25 25 26 27 28 28 29 29 30 29 29 29 30 31 31
16 17 17 17 17 16 16 16 16 16 17 17 18 19 20 20 21 22 22 23 24 24 25 25 26 26 26 26 27 27 28 29 29 30 30 31 31 32 32 32 32 32 33
17 18 18 18 18 17 17 17 17 17 17 18 19 20 21 22 22 22 23 24 24 25 25 26 26 26 27 28 29 29 29 30 30 31 31 32 32 32 33 33 33 33 34
18 18 18 18 18 18 18 18 18 19 19 20 21 21 21 22 22 24 25 25 26 27 27 27 28 28 29 29 30 31 32 32 31 31 32 32 33 33 34 34 35 36 36
19 19 19 18 18 19 18 19 19 20 21 21 21 22 23 23 24 25 26 26 27 28 28 29 29 29 30 30 31 32 33 33 33 33 33 34 34 34 34 35 36 38 38

GEFSMA_500_meanwind_222.txt.gz
Wind_Speed
3 3 3 3 4 4 4 4 4 4 4 3 3 2 2 2 2 1 1 1 2 2 2 2 2 2 2 2 1 1 1 1 0 0 1 1 2 2 3 3 3 3 4
3 3 3 4 4 4 4 4 4 4 4 4 3 3 2 3 3 2 2 2 2 2 2 2 2 3 3 3 2 2 2 2 1 1 1 2 2 3 3 3 3 4 4
3 4 4 4 4 4 4 4 4 4 4 3 3 4 4 3 3 4 3 3 3 2 2 3 3 3 3 3 3 3 3 2 2 2 2 2 2 3 3 3 3 4 5
4 5 5 5 4 4 4 4 4 5 5 4 4 4 5 4 4 4 4 3 3 2 3 3 3 3 3 4 4 4 4 3 3 3 3 3 3 3 4 4 5 5 5
5 5 5 5 5 5 4 5 5 5 4 4 5 5 5 4 4 5 4 4 4 4 3 3 3 4 4 4 4 4 4 4 4 4 4 4 4 4 5 5 5 5 6
6 5 5 5 5 5 5 5 5 5 4 5 5 5 5 5 5 5 5 5 5 5 5 5 4 4 4 5 4 5 5 5 5 5 5 5 6 5 5 5 5 6 6
5 4 5 5 5 5 5 6 6 5 5 5 5 5 5 5 5 6 5 5 5 5 6 6 5 5 6 6 5 5 5 6 6 6 6 6 7 7 7 7 7 7 7
5 5 5 6 6 6 6 6 6 5 5 5 5 5 5 5 5 5 5 5 6 5 6 6 6 6 6 6 6 6 6 6 7 7 7 7 7 7 8 8 8 7 8
6 6 6 6 7 7 6 5 5 5 5 5 5 5 5 5 6 6 6 6 6 6 6 7 7 7 7 7 7 7 7 7 7 8 8 8 9 9 9 9 9 9 9
7 8 8 7 8 8 6 6 5 5 5 5 5 5 6 6 6 7 7 7 7 7 7 8 8 8 8 8 9 9 9 8 9 9 10 10 10 10 10 10 10 11 11
8 8 8 8 8 7 6 6 5 6 6 6 6 7 7 7 7 8 8 8 8 8 8 9 9 9 10 10 10 10 10 10 10 10 11 11 11 12 12 12 12 12 12
8 8 9 8 8 7 7 7 7 7 7 7 7 7 8 8 8 8 9 9 9 9 9 10 10 10 11 11 11 11 11 11 11 11 12 12 13 13 13 13 13 13 13
9 9 9 9 9 8 8 7 7 8 8 8 8 8 8 8 9 9 9 9 10 10 10 10 11 12 12 12 12 13 13 12 12 12 13 13 14 14 14 14 15 15 15
9 10 9 9 9 9 9 8 8 9 8 8 9 9 10 10 9 9 10 10 10 11 11 11 12 12 12 13 14 14 14 14 14 14 14 14 15 15 15 16 16 16 16
9 9 9 10 10 9 9 9 9 9 9 9 10 10 10 10 11 10 11 11 11 12 12 12 13 13 13 13 14 15 16 16 16 16 16 16 16 17 17 17 18 18 18
10 10 9 9 8 8 9 9 9 9 10 10 11 11 11 11 12 12 12 12 13 13 13 13 13 13 14 15 15 15 16 17 17 17 17 18 19 19 19 20 20 20 20
11 10 9 8 8 8 9 9 9 10 10 10 11 11 11 11 12 12 13 13 14 14 14 14 14 14 15 16 16 16 17 18 19 19 19 20 20 20 21 21 22 22 23
11 10 9 8 9 9 10 10 10 10 11 11 11 11 11 11 11 12 13 14 15 15 15 15 15 16 16 17 17 18 19 19 20 21 21 21 21 22 23 24 24 25 26
10 10 10 10 10 11 11 11 11 10 11 11 11 11 11 12 13 13 14 15 15 16 16 16 16 17 17 18 19 20 20 21 22 22 22 23 24 25 26 26 27 28 28
11 11 12 12 12 12 12 12 11 11 12 12 12 12 13 13 13 14 14 15 16 16 16 17 17 17 18 19 20 20 21 22 23 24 24 25 26 27 28 29 29 30 30
12 12 13 13 13 12 12 13 12 13 13 13 13 13 13 13 13 14 14 15 16 17 17 17 18 18 19 21 22 23 23 23 24 25 26 27 27 28 29 30 31 32 32
12 12 12 13 13 13 13 13 13 14 14 14 15 15 15 15 15 16 16 17 17 18 18 19 20 20 21 22 23 24 24 24 25 26 27 27 28 28 29 30 31 32 33
12 13 13 14 13 14 14 14 14 15 15 14 15 16 16 16 17 18 18 19 19 19 20 22 23 23 24 24 25 26 26 27 27 28 29 29 30 30 31 32 33 33 33
13 13 14 14 13 14 15 15 15 16 16 16 16 16 17 18 19 19 20 21 21 21 22 23 23 24 24 25 25 25 27 27 29 30 30 31 32 32 33 34 34 34 34
14 15 14 15 14 15 15 16 16 17 17 17 17 18 19 20 20 20 20 21 22 22 24 25 23 24 25 27 27 28 28 30 30 31 32 32 33 33 34 35 34 35 36
16 16 16 16 15 16 17 17 17 17 17 18 19 19 20 21 21 21 21 22 22 23 24 25 25 25 26 28 28 29 30 31 32 32 33 33 34 35 36 36 36 37 38

GEFSMA_500_meanwind_228.txt.gz
Wind_Speed
4 4 4 4 4 4 4 5 4 4 5 5 4 3 2 2 3 2 2 2 2 2 2 2 2 3 3 3 3 3 3 3 2 2 2 2 2 2 3 3 3 3 4
4 5 5 5 5 5 5 5 5 5 5 5 4 4 3 3 3 3 3 3 2 2 3 3 3 3 3 3 3 3 3 3 3 3 3 3 3 3 4 4 4 4 4
4 5 5 5 5 5 5 5 5 5 5 5 5 4 4 3 4 4 4 3 3 3 3 4 3 3 4 4 3 3 3 3 3 3 3 3 3 4 4 4 5 5 5
4 5 5 6 6 6 6 6 6 6 5 5 5 5 4 4 4 4 4 4 4 4 4 4 4 4 4 4 4 4 4 4 4 4 4 4 4 4 5 5 5 6 6
5 6 6 6 6 6 6 6 6 6 6 5 5 4 4 5 5 4 5 5 5 5 4 4 5 5 5 5 5 4 5 5 5 5 5 5 5 6 6 6 6 6 7
5 5 6 6 7 6 6 6 6 6 6 5 4 4 4 5 5 5 5 5 5 5 5 5 5 6 6 6 6 6 6 5 6 6 6 6 6 7 7 7 7 7 7
5 6 6 7 7 6 6 7 7 7 6 5 5 4 4 4 5 5 5 5 6 6 6 6 6 6 7 7 7 7 7 7 7 7 8 8 8 8 8 8 8 8 8
6 6 7 7 7 6 7 7 7 6 6 5 4 4 4 5 5 6 6 6 7 7 7 7 8 8 8 8 8 8 8 8 8 8 9 9 9 9 9 9 10 10 10
8 8 8 8 8 8 8 7 6 6 6 6 4 5 5 6 6 7 7 7 7 8 8 8 9 10 10 10 9 9 9 9 9 10 10 10 10 10 10 10 10 11 11
9 9 9 9 9 8 8 7 7 7 7 6 6 6 7 7 7 8 8 9 9 9 10 10 10 11 11 11 10 10 11 11 11 11 11 11 11 12 12 12 12 12 13
10 9 10 10 9 9 8 8 8 8 8 8 8 8 9 9 9 10 10 11 11 11 10 10 10 11 11 10 11 12 12 12 13 13 12 12 13 13 14 14 14 14 15
10 10 9 9 9 9 8 8 8 8 8 8 9 9 10 11 11 11 12 12 11 11 11 11 11 12 12 12 12 13 13 14 14 14 14 14 14 14 15 15 16 16 16
10 10 9 9 9 9 9 8 8 8 9 9 10 11 11 12 12 12 12 12 12 12 12 12 13 13 13 14 14 15 15 16 16 16 16 16 16 16 16 16 17 17 18
10 11 10 10 10 10 9 8 9 10 10 10 11 11 12 12 12 12 12 12 12 13 13 14 15 15 15 15 15 16 16 17 17 17 18 18 18 18 18 18 19 19 19
11 11 11 11 10 10 9 10 10 10 10 11 11 12 12 12 12 12 12 12 13 14 15 16 16 16 15 16 16 17 18 18 18 18 19 20 19 20 20 20 21 21 21
12 12 11 11 11 10 10 10 10 11 11 12 12 13 13 13 13 13 13 13 14 14 16 17 17 17 17 17 17 18 19 20 19 20 20 20 21 21 22 23 24 24 24
12 13 12 12 12 11 11 11 11 12 12 13 13 14 14 14 14 15 15 15 16 15 15 16 17 18 18 19 19 20 21 21 21 21 21 22 22 23 24 25 26 27 27
13 13 12 13 13 13 13 13 13 13 13 14 14 14 14 14 15 16 16 16 17 17 17 17 18 19 20 21 22 22 22 22 23 23 23 24 25 25 27 28 28 28 28
13 14 14 14 14 13 13 14 14 14 14 14 14 14 15 15 15 16 16 17 17 17 17 18 19 20 22 23 23 23 24 24 24 25 26 26 26 26 27 28 29 28 28
13 13 14 14 14 14 14 14 14 14 14 14 14 14 15 15 16 16 17 17 17 18 19 19 20 22 22 23 24 24 24 25 25 25 26 27 27 27 27 27 28 29 29
13 13 14 14 14 15 15 14 14 14 14 15 16 16 16 16 17 17 18 18 18 20 21 21 22 23 24 24 25 25 25 25 26 27 28 28 28 28 28 29 30 30 30
14 14 14 14 14 14 14 15 15 15 15 16 16 17 18 18 18 18 19 19 20 21 22 23 24 24 24 25 26 26 27 27 28 29 29 30 30 30 31 31 31 32 32
14 14 14 13 14 15 15 15 15 16 16 17 18 19 19 19 19 19 20 20 22 23 23 24 24 25 25 25 26 27 28 29 30 30 30 31 32 32 32 32 33 33 33
14 14 14 14 15 15 16 17 16 16 18 19 19 20 20 20 20 21 22 23 23 24 25 25 25 26 26 26 27 28 29 29 30 30 31 32 32 33 33 34 34 34 35
15 15 16 15 16 16 17 18 18 19 20 20 21 21 21 21 21 22 23 24 24 25 26 26 26 27 27 27 28 29 30 30 31 32 32 33 33 34 34 34 35 35 36
17 17 17 16 16 18 19 19 19 20 21 21 22 22 22 22 23 24 24 25 25 26 27 27 27 27 28 29 30 31 32 32 32 33 33 33 33 34 34 35 36 37 38

GEFSMA_500_meanwind_234.txt.gz
Wind_Speed
2 3 4 4 3 2 3 3 3 2 1 1 1 1 1 2 2 1 1 1 1 1 2 2 2 2 2 2 2 2 1 1 2 2 2 2 2 2 2 2 3 3 3
2 3 3 3 3 2 2 3 3 3 2 1 1 1 1 1 2 2 2 2 2 2 2 2 2 3 3 3 3 2 2 2 2 2 2 3 3 3 3 3 3 3 4
2 2 3 2 2 2 2 3 3 3 2 2 2 2 2 2 2 2 3 3 3 3 3 2 2 3 3 4 3 3 2 3 2 2 3 3 4 4 4 4 4 5 4
2 3 3 3 3 3 4 4 4 4 4 4 3 3 3 3 2 3 3 3 3 3 3 3 3 3 3 3 4 4 3 3 3 3 3 3 4 4 5 5 5 5 5
3 3 4 4 4 4 5 5 5 5 5 5 4 3 3 3 3 4 3 3 3 3 4 4 4 4 3 4 5 5 4 4 5 4 4 4 4 5 5 5 5 5 6
4 4 4 5 6 6 6 7 6 6 6 6 5 5 4 4 4 4 4 4 4 4 4 5 5 5 5 5 6 6 6 6 6 5 5 5 5 6 6 5 6 6 7
4 5 5 6 6 7 7 7 6 6 6 5 5 5 4 4 4 4 4 4 5 5 6 6 6 6 6 7 7 7 7 7 7 7 7 7 7 7 7 7 7 8 8
6 6 6 6 6 7 7 7 6 6 5 5 4 5 4 4 4 4 5 6 6 7 7 7 8 8 8 8 8 9 9 9 8 8 8 8 8 8 8 8 8 9 9
8 8 7 7 7 7 7 6 6 5 5 5 5 5 4 5 5 5 6 7 7 8 8 9 9 9 9 9 9 9 9 9 9 9 9 9 9 9 10 10 10 10 10
10 9 8 7 8 7 7 7 6 6 6 6 6 5 5 6 6 7 8 8 9 9 9 9 9 10 10 10 10 10 10 10 10 11 11 11 11 11 12 12 12 12 12
10 9 8 8 8 7 7 7 7 7 7 6 6 6 7 7 8 8 8 9 10 10 10 10 11 10 10 10 10 11 11 11 12 12 13 13 14 14 14 14 14 14 14
10 9 9 9 8 8 8 8 8 8 7 7 7 7 8 8 8 9 9 10 11 12 12 12 12 11 11 12 12 12 13 13 14 15 15 16 16 16 16 17 16 16 16
9 9 9 9 9 8 9 9 9 8 8 8 8 8 9 10 10 10 10 11 11 12 13 12 12 12 13 13 14 14 14 15 16 16 17 18 18 18 18 18 18 18 18
10 10 10 10 10 9 9 9 9 9 10 10 10 10 10 11 11 11 11 11 11 12 12 13 13 13 14 14 15 16 17 17 18 18 18 19 19 19 19 20 20 20 20
10 11 11 11 11 10 10 10 11 11 11 11 11 10 11 12 12 12 12 12 12 13 14 14 15 15 15 16 17 17 18 19 19 19 19 20 20 20 20 21 22 22 23
11 11 12 12 12 11 12 11 11 11 11 12 12 12 12 12 12 12 13 13 14 14 14 15 16 16 17 18 18 19 19 20 21 21 21 22 23 23 23 23 24 25 24
12 12 13 13 12 12 12 11 11 11 11 12 13 13 13 13 13 13 13 14 14 15 15 16 16 17 18 19 19 20 20 21 22 23 24 25 25 25 25 26 26 26 26
13 13 13 13 13 12 11 11 11 11 11 12 13 13 13 13 14 14 14 14 15 15 15 15 16 17 18 19 19 20 21 22 23 24 25 26 26 27 27 28 27 27 27
13 13 13 13 13 12 12 13 13 13 13 13 13 14 14 14 15 15 15 15 15 15 16 16 17 18 19 20 21 22 22 22 23 24 25 26 27 27 28 29 29 28 28
13 13 14 13 13 13 13 14 14 14 14 14 14 15 15 15 15 16 16 17 17 17 18 19 19 19 20 21 22 23 24 24 25 25 25 26 26 27 28 28 29 29 29
14 14 14 14 14 13 13 14 15 15 15 15 15 15 15 15 16 17 18 19 19 20 20 20 21 21 22 23 23 24 24 25 25 26 27 26 27 28 29 29 30 30 31
14 14 13 14 14 14 15 15 15 15 16 16 16 16 16 17 17 18 19 20 21 21 21 22 23 23 24 24 25 25 25 26 27 28 28 28 29 29 29 29 30 31 31
15 14 14 15 15 15 15 15 16 16 16 16 17 17 18 18 19 19 20 21 22 23 23 24 24 24 25 25 26 26 27 27 27 28 29 30 30 31 31 31 31 31 31
15 15 16 16 16 16 16 16 17 17 17 17 17 18 19 19 21 21 22 23 24 25 25 25 25 26 26 27 27 28 28 28 29 29 30 31 32 32 32 32 32 32 33
16 16 17 17 18 17 17 17 17 17 18 18 19 19 20 21 22 23 24 25 26 26 26 27 27 27 27 28 28 29 29 29 30 31 31 32 32 32 33 33 34 34 35
18 18 19 18 18 18 18 18 19 19 20 20 21 21 22 23 23 24 25 26 27 27 28 28 28 28 28 29 30 30 30 31 31 31 31 32 33 33 34 34 34 35 35